Regional Weather Roundup
Issued by NWS

Home | Current Version | Previous Version | Text Only | Print | Product List | Glossary Off
Versions: 1 2 3 4 5 6 7 8 9 10 11 12 13 14 15 16 17 18 19 20 21 22 23 24 25 26 27 28 29 30 31 32 33 34 35 36 37 38 39 40 41 42 43 44 45 46 47 48 49 50

000
ASUS43 KBIS 191059
RWRND

NORTH DAKOTA REGIONAL WEATHER ROUNDUP
NATIONAL WEATHER SERVICE BISMARCK ND
500 AM CST FRI DEC 19 2014

NOTE: "FAIR" INDICATES FEW OR NO CLOUDS BELOW 12,000 FEET WITH NO
SIGNIFICANT WEATHER AND/OR OBSTRUCTIONS TO VISIBILITY.


NDZ001>003-009>011-017-191200-
NORTHWEST NORTH DAKOTA

CITY           SKY/WX    TMP DP  RH WIND       PRES   REMARKS
WILLISTON      FOG       23  21  92 CALM      29.92F VSB 1/4
MINOT          FOG       27  25  92 SE3       29.93S VSB 1/2
MINOT AFB      FRZ DRZL  25  25 100 SE3       29.93F
$$

NDZ018>021-031>035-040>046-191200-
SOUTHWEST NORTH DAKOTA

CITY           SKY/WX    TMP DP  RH WIND       PRES   REMARKS
BISMARCK       CLOUDY    21  20  96 SE3       29.97F
DICKINSON      CLOUDY    32  25  75 W7        29.89S
GARRISON         N/A     22  21  96 E3        29.92F
HETTINGER ARPT MOCLDY    26  22  84 CALM      29.93F
$$

NDZ004>008-012>016-024-026-027-054-191200-
NORTHEAST NORTH DAKOTA

CITY           SKY/WX    TMP DP  RH WIND       PRES   REMARKS
GRAND FORKS    CLOUDY    21  19  92 S12       30.09F FOG     WCI   9
DEVILS LAKE    CLOUDY    25  18  74 S9        29.97F WCI  15
$$

NDZ022-023-025-028>030-036>039-047>053-191200-
SOUTHEAST NORTH DAKOTA

CITY           SKY/WX    TMP DP  RH WIND       PRES   REMARKS
FARGO          CLOUDY    24  21  88 S12       30.11F FOG     WCI  13
JAMESTOWN      CLOUDY    26  25  96 S12       30.00F FOG     WCI  16
$$




USA.gov is the U.S. government's official web portal to all federal, state and local government web resources and services.